Index of /20260425/WXO-DD/model_rdps/10km/00/061
Name Last modified Size Description
Parent Directory -
20260425T00Z_MSC_RDPS_AbsoluteVorticity_IsbL-0250_RLatLon0.09_PT061H.grib2 2026-04-25 03:03 600K
20260425T00Z_MSC_RDPS_AbsoluteVorticity_IsbL-0500_RLatLon0.09_PT061H.grib2 2026-04-25 03:03 561K
20260425T00Z_MSC_RDPS_AbsoluteVorticity_IsbL-0700_RLatLon0.09_PT061H.grib2 2026-04-25 03:03 617K
20260425T00Z_MSC_RDPS_AbsoluteVorticity_IsbL-0850_RLatLon0.09_PT061H.grib2 2026-04-25 03:03 780K
20260425T00Z_MSC_RDPS_AirTemp_AGL-120m_RLatLon0.09_PT061H.grib2 2026-04-25 03:03 386K
20260425T00Z_MSC_RDPS_AirTemp_AGL-2m_RLatLon0.09_PT061H.grib2 2026-04-25 03:03 648K
20260425T00Z_MSC_RDPS_AirTemp_AGL-40m_RLatLon0.09_PT061H.grib2 2026-04-25 03:03 402K
20260425T00Z_MSC_RDPS_AirTemp_AGL-80m_RLatLon0.09_PT061H.grib2 2026-04-25 03:03 409K
20260425T00Z_MSC_RDPS_AirTemp_IsbL-0001_RLatLon0.09_PT061H.grib2 2026-04-25 03:03 265K
20260425T00Z_MSC_RDPS_AirTemp_IsbL-0005_RLatLon0.09_PT061H.grib2 2026-04-25 03:03 332K
20260425T00Z_MSC_RDPS_AirTemp_IsbL-0010_RLatLon0.09_PT061H.grib2 2026-04-25 03:03 306K
20260425T00Z_MSC_RDPS_AirTemp_IsbL-0020_RLatLon0.09_PT061H.grib2 2026-04-25 03:03 323K
20260425T00Z_MSC_RDPS_AirTemp_IsbL-0030_RLatLon0.09_PT061H.grib2 2026-04-25 03:03 341K
20260425T00Z_MSC_RDPS_AirTemp_IsbL-0050_RLatLon0.09_PT061H.grib2 2026-04-25 03:03 319K
20260425T00Z_MSC_RDPS_AirTemp_IsbL-0100_RLatLon0.09_PT061H.grib2 2026-04-25 03:03 419K
20260425T00Z_MSC_RDPS_AirTemp_IsbL-0150_RLatLon0.09_PT061H.grib2 2026-04-25 03:03 412K
20260425T00Z_MSC_RDPS_AirTemp_IsbL-0175_RLatLon0.09_PT061H.grib2 2026-04-25 03:03 405K
20260425T00Z_MSC_RDPS_AirTemp_IsbL-0200_RLatLon0.09_PT061H.grib2 2026-04-25 03:03 412K
20260425T00Z_MSC_RDPS_AirTemp_IsbL-0225_RLatLon0.09_PT061H.grib2 2026-04-25 03:03 413K
20260425T00Z_MSC_RDPS_AirTemp_IsbL-0250_RLatLon0.09_PT061H.grib2 2026-04-25 03:03 420K
20260425T00Z_MSC_RDPS_AirTemp_IsbL-0275_RLatLon0.09_PT061H.grib2 2026-04-25 03:03 402K
20260425T00Z_MSC_RDPS_AirTemp_IsbL-0300_RLatLon0.09_PT061H.grib2 2026-04-25 03:03 409K
20260425T00Z_MSC_RDPS_AirTemp_IsbL-0350_RLatLon0.09_PT061H.grib2 2026-04-25 03:03 419K
20260425T00Z_MSC_RDPS_AirTemp_IsbL-0400_RLatLon0.09_PT061H.grib2 2026-04-25 03:03 420K
20260425T00Z_MSC_RDPS_AirTemp_IsbL-0450_RLatLon0.09_PT061H.grib2 2026-04-25 03:03 427K
20260425T00Z_MSC_RDPS_AirTemp_IsbL-0500_RLatLon0.09_PT061H.grib2 2026-04-25 03:03 405K
20260425T00Z_MSC_RDPS_AirTemp_IsbL-0550_RLatLon0.09_PT061H.grib2 2026-04-25 03:03 423K
20260425T00Z_MSC_RDPS_AirTemp_IsbL-0600_RLatLon0.09_PT061H.grib2 2026-04-25 03:03 438K
20260425T00Z_MSC_RDPS_AirTemp_IsbL-0650_RLatLon0.09_PT061H.grib2 2026-04-25 03:03 453K
20260425T00Z_MSC_RDPS_AirTemp_IsbL-0700_RLatLon0.09_PT061H.grib2 2026-04-25 03:03 479K
20260425T00Z_MSC_RDPS_AirTemp_IsbL-0750_RLatLon0.09_PT061H.grib2 2026-04-25 03:03 409K
20260425T00Z_MSC_RDPS_AirTemp_IsbL-0800_RLatLon0.09_PT061H.grib2 2026-04-25 03:03 459K
20260425T00Z_MSC_RDPS_AirTemp_IsbL-0850_RLatLon0.09_PT061H.grib2 2026-04-25 03:03 508K
20260425T00Z_MSC_RDPS_AirTemp_IsbL-0875_RLatLon0.09_PT061H.grib2 2026-04-25 03:03 522K
20260425T00Z_MSC_RDPS_AirTemp_IsbL-0900_RLatLon0.09_PT061H.grib2 2026-04-25 03:03 528K
20260425T00Z_MSC_RDPS_AirTemp_IsbL-0925_RLatLon0.09_PT061H.grib2 2026-04-25 03:03 530K
20260425T00Z_MSC_RDPS_AirTemp_IsbL-0950_RLatLon0.09_PT061H.grib2 2026-04-25 03:03 529K
20260425T00Z_MSC_RDPS_AirTemp_IsbL-0970_RLatLon0.09_PT061H.grib2 2026-04-25 03:03 529K
20260425T00Z_MSC_RDPS_AirTemp_IsbL-0985_RLatLon0.09_PT061H.grib2 2026-04-25 03:03 524K
20260425T00Z_MSC_RDPS_AirTemp_IsbL-1000_RLatLon0.09_PT061H.grib2 2026-04-25 03:03 508K
20260425T00Z_MSC_RDPS_AirTemp_IsbL-1015_RLatLon0.09_PT061H.grib2 2026-04-25 03:03 501K
20260425T00Z_MSC_RDPS_Albedo_Sfc_RLatLon0.09_PT061H.grib2 2026-04-25 03:03 161K
20260425T00Z_MSC_RDPS_CAPE_Sfc_RLatLon0.09_PT061H.grib2 2026-04-25 03:03 1.7M
20260425T00Z_MSC_RDPS_CIN_Sfc_RLatLon0.09_PT061H.grib2 2026-04-25 03:03 1.1M
20260425T00Z_MSC_RDPS_CloudWater_EAtm_RLatLon0.09_PT061H.grib2 2026-04-25 03:03 219K
20260425T00Z_MSC_RDPS_ConvectivePrecip-Accum_Sfc_RLatLon0.09_PT061H.grib2 2026-04-25 03:03 1.2M
20260425T00Z_MSC_RDPS_DewPointDepression_AGL-2m_RLatLon0.09_PT061H.grib2 2026-04-25 03:03 404K
20260425T00Z_MSC_RDPS_DewPointDepression_IsbL-0001_RLatLon0.09_PT061H.grib2 2026-04-25 03:03 193
20260425T00Z_MSC_RDPS_DewPointDepression_IsbL-0005_RLatLon0.09_PT061H.grib2 2026-04-25 03:03 193
20260425T00Z_MSC_RDPS_DewPointDepression_IsbL-0010_RLatLon0.09_PT061H.grib2 2026-04-25 03:03 193
20260425T00Z_MSC_RDPS_DewPointDepression_IsbL-0020_RLatLon0.09_PT061H.grib2 2026-04-25 03:03 193
20260425T00Z_MSC_RDPS_DewPointDepression_IsbL-0030_RLatLon0.09_PT061H.grib2 2026-04-25 03:03 193
20260425T00Z_MSC_RDPS_DewPointDepression_IsbL-0050_RLatLon0.09_PT061H.grib2 2026-04-25 03:03 89K
20260425T00Z_MSC_RDPS_DewPointDepression_IsbL-0100_RLatLon0.09_PT061H.grib2 2026-04-25 03:03 124K
20260425T00Z_MSC_RDPS_DewPointDepression_IsbL-0150_RLatLon0.09_PT061H.grib2 2026-04-25 03:03 144K
20260425T00Z_MSC_RDPS_DewPointDepression_IsbL-0175_RLatLon0.09_PT061H.grib2 2026-04-25 03:03 178K
20260425T00Z_MSC_RDPS_DewPointDepression_IsbL-0200_RLatLon0.09_PT061H.grib2 2026-04-25 03:03 219K
20260425T00Z_MSC_RDPS_DewPointDepression_IsbL-0225_RLatLon0.09_PT061H.grib2 2026-04-25 03:03 254K
20260425T00Z_MSC_RDPS_DewPointDepression_IsbL-0250_RLatLon0.09_PT061H.grib2 2026-04-25 03:03 291K
20260425T00Z_MSC_RDPS_DewPointDepression_IsbL-0275_RLatLon0.09_PT061H.grib2 2026-04-25 03:03 301K
20260425T00Z_MSC_RDPS_DewPointDepression_IsbL-0300_RLatLon0.09_PT061H.grib2 2026-04-25 03:03 320K
20260425T00Z_MSC_RDPS_DewPointDepression_IsbL-0350_RLatLon0.09_PT061H.grib2 2026-04-25 03:03 327K
20260425T00Z_MSC_RDPS_DewPointDepression_IsbL-0400_RLatLon0.09_PT061H.grib2 2026-04-25 03:03 345K
20260425T00Z_MSC_RDPS_DewPointDepression_IsbL-0450_RLatLon0.09_PT061H.grib2 2026-04-25 03:03 356K
20260425T00Z_MSC_RDPS_DewPointDepression_IsbL-0500_RLatLon0.09_PT061H.grib2 2026-04-25 03:03 361K
20260425T00Z_MSC_RDPS_DewPointDepression_IsbL-0550_RLatLon0.09_PT061H.grib2 2026-04-25 03:03 368K
20260425T00Z_MSC_RDPS_DewPointDepression_IsbL-0600_RLatLon0.09_PT061H.grib2 2026-04-25 03:03 378K
20260425T00Z_MSC_RDPS_DewPointDepression_IsbL-0650_RLatLon0.09_PT061H.grib2 2026-04-25 03:03 386K
20260425T00Z_MSC_RDPS_DewPointDepression_IsbL-0700_RLatLon0.09_PT061H.grib2 2026-04-25 03:03 398K
20260425T00Z_MSC_RDPS_DewPointDepression_IsbL-0750_RLatLon0.09_PT061H.grib2 2026-04-25 03:03 421K
20260425T00Z_MSC_RDPS_DewPointDepression_IsbL-0800_RLatLon0.09_PT061H.grib2 2026-04-25 03:03 455K
20260425T00Z_MSC_RDPS_DewPointDepression_IsbL-0850_RLatLon0.09_PT061H.grib2 2026-04-25 03:03 481K
20260425T00Z_MSC_RDPS_DewPointDepression_IsbL-0875_RLatLon0.09_PT061H.grib2 2026-04-25 03:03 480K
20260425T00Z_MSC_RDPS_DewPointDepression_IsbL-0900_RLatLon0.09_PT061H.grib2 2026-04-25 03:03 466K
20260425T00Z_MSC_RDPS_DewPointDepression_IsbL-0925_RLatLon0.09_PT061H.grib2 2026-04-25 03:03 457K
20260425T00Z_MSC_RDPS_DewPointDepression_IsbL-0950_RLatLon0.09_PT061H.grib2 2026-04-25 03:03 446K
20260425T00Z_MSC_RDPS_DewPointDepression_IsbL-0970_RLatLon0.09_PT061H.grib2 2026-04-25 03:03 441K
20260425T00Z_MSC_RDPS_DewPointDepression_IsbL-0985_RLatLon0.09_PT061H.grib2 2026-04-25 03:03 439K
20260425T00Z_MSC_RDPS_DewPointDepression_IsbL-1000_RLatLon0.09_PT061H.grib2 2026-04-25 03:03 437K
20260425T00Z_MSC_RDPS_DewPointDepression_IsbL-1015_RLatLon0.09_PT061H.grib2 2026-04-25 03:03 429K
20260425T00Z_MSC_RDPS_DewPoint_AGL-2m_RLatLon0.09_PT061H.grib2 2026-04-25 03:03 316K
20260425T00Z_MSC_RDPS_DownwardLongwaveRadiationFlux-Accum_Sfc_RLatLon0.09_PT061H.grib2 2026-04-25 03:03 413K
20260425T00Z_MSC_RDPS_DownwardShortwaveRadiationFlux-Accum_NTAtm_RLatLon0.09_PT061H.grib2 2026-04-25 03:03 151K
20260425T00Z_MSC_RDPS_DownwardShortwaveRadiationFlux-Accum_Sfc_RLatLon0.09_PT061H.grib2 2026-04-25 03:03 584K
20260425T00Z_MSC_RDPS_FreezingRain-Accum1h_Sfc_RLatLon0.09_PT061H.grib2 2026-04-25 03:03 52K
20260425T00Z_MSC_RDPS_FreezingRain-Accum_Sfc_RLatLon0.09_PT061H.grib2 2026-04-25 03:03 190K
20260425T00Z_MSC_RDPS_GeopotentialHeight_IsbL-0001_RLatLon0.09_PT061H.grib2 2026-04-25 03:03 271K
20260425T00Z_MSC_RDPS_GeopotentialHeight_IsbL-0005_RLatLon0.09_PT061H.grib2 2026-04-25 03:03 339K
20260425T00Z_MSC_RDPS_GeopotentialHeight_IsbL-0010_RLatLon0.09_PT061H.grib2 2026-04-25 03:03 309K
20260425T00Z_MSC_RDPS_GeopotentialHeight_IsbL-0020_RLatLon0.09_PT061H.grib2 2026-04-25 03:03 307K
20260425T00Z_MSC_RDPS_GeopotentialHeight_IsbL-0030_RLatLon0.09_PT061H.grib2 2026-04-25 03:03 309K
20260425T00Z_MSC_RDPS_GeopotentialHeight_IsbL-0050_RLatLon0.09_PT061H.grib2 2026-04-25 03:03 309K
20260425T00Z_MSC_RDPS_GeopotentialHeight_IsbL-0100_RLatLon0.09_PT061H.grib2 2026-04-25 03:03 288K
20260425T00Z_MSC_RDPS_GeopotentialHeight_IsbL-0150_RLatLon0.09_PT061H.grib2 2026-04-25 03:03 227K
20260425T00Z_MSC_RDPS_GeopotentialHeight_IsbL-0175_RLatLon0.09_PT061H.grib2 2026-04-25 03:03 230K
20260425T00Z_MSC_RDPS_GeopotentialHeight_IsbL-0200_RLatLon0.09_PT061H.grib2 2026-04-25 03:03 232K
20260425T00Z_MSC_RDPS_GeopotentialHeight_IsbL-0225_RLatLon0.09_PT061H.grib2 2026-04-25 03:03 265K
20260425T00Z_MSC_RDPS_GeopotentialHeight_IsbL-0250_RLatLon0.09_PT061H.grib2 2026-04-25 03:03 266K
20260425T00Z_MSC_RDPS_GeopotentialHeight_IsbL-0275_RLatLon0.09_PT061H.grib2 2026-04-25 03:03 235K
20260425T00Z_MSC_RDPS_GeopotentialHeight_IsbL-0300_RLatLon0.09_PT061H.grib2 2026-04-25 03:03 234K
20260425T00Z_MSC_RDPS_GeopotentialHeight_IsbL-0350_RLatLon0.09_PT061H.grib2 2026-04-25 03:03 230K
20260425T00Z_MSC_RDPS_GeopotentialHeight_IsbL-0400_RLatLon0.09_PT061H.grib2 2026-04-25 03:03 227K
20260425T00Z_MSC_RDPS_GeopotentialHeight_IsbL-0450_RLatLon0.09_PT061H.grib2 2026-04-25 03:03 296K
20260425T00Z_MSC_RDPS_GeopotentialHeight_IsbL-0500_RLatLon0.09_PT061H.grib2 2026-04-25 03:03 291K
20260425T00Z_MSC_RDPS_GeopotentialHeight_IsbL-0550_RLatLon0.09_PT061H.grib2 2026-04-25 03:03 287K
20260425T00Z_MSC_RDPS_GeopotentialHeight_IsbL-0600_RLatLon0.09_PT061H.grib2 2026-04-25 03:03 282K
20260425T00Z_MSC_RDPS_GeopotentialHeight_IsbL-0650_RLatLon0.09_PT061H.grib2 2026-04-25 03:03 281K
20260425T00Z_MSC_RDPS_GeopotentialHeight_IsbL-0700_RLatLon0.09_PT061H.grib2 2026-04-25 03:03 280K
20260425T00Z_MSC_RDPS_GeopotentialHeight_IsbL-0750_RLatLon0.09_PT061H.grib2 2026-04-25 03:03 253K
20260425T00Z_MSC_RDPS_GeopotentialHeight_IsbL-0800_RLatLon0.09_PT061H.grib2 2026-04-25 03:03 260K
20260425T00Z_MSC_RDPS_GeopotentialHeight_IsbL-0850_RLatLon0.09_PT061H.grib2 2026-04-25 03:03 269K
20260425T00Z_MSC_RDPS_GeopotentialHeight_IsbL-0875_RLatLon0.09_PT061H.grib2 2026-04-25 03:03 271K
20260425T00Z_MSC_RDPS_GeopotentialHeight_IsbL-0900_RLatLon0.09_PT061H.grib2 2026-04-25 03:03 275K
20260425T00Z_MSC_RDPS_GeopotentialHeight_IsbL-0925_RLatLon0.09_PT061H.grib2 2026-04-25 03:03 277K
20260425T00Z_MSC_RDPS_GeopotentialHeight_IsbL-0950_RLatLon0.09_PT061H.grib2 2026-04-25 03:03 282K
20260425T00Z_MSC_RDPS_GeopotentialHeight_IsbL-0970_RLatLon0.09_PT061H.grib2 2026-04-25 03:03 285K
20260425T00Z_MSC_RDPS_GeopotentialHeight_IsbL-0985_RLatLon0.09_PT061H.grib2 2026-04-25 03:03 292K
20260425T00Z_MSC_RDPS_GeopotentialHeight_IsbL-1000_RLatLon0.09_PT061H.grib2 2026-04-25 03:03 303K
20260425T00Z_MSC_RDPS_GeopotentialHeight_IsbL-1015_RLatLon0.09_PT061H.grib2 2026-04-25 03:03 315K
20260425T00Z_MSC_RDPS_Humidex_Sfc_RLatLon0.09_PT061H.grib2 2026-04-25 03:03 2.4M
20260425T00Z_MSC_RDPS_IcePellets-Accum1h_Sfc_RLatLon0.09_PT061H.grib2 2026-04-25 03:03 7.2K
20260425T00Z_MSC_RDPS_IcePellets-Accum_Sfc_RLatLon0.09_PT061H.grib2 2026-04-25 03:03 50K
20260425T00Z_MSC_RDPS_KIndex_Sfc_RLatLon0.09_PT061H.grib2 2026-04-25 03:03 2.4M
20260425T00Z_MSC_RDPS_LatentHeatNetFlux_Sfc_RLatLon0.09_PT061H.grib2 2026-04-25 03:03 446K
20260425T00Z_MSC_RDPS_LiftedIndex-MU-VT_IsbL-0500_RLatLon0.09_PT061H.grib2 2026-04-25 03:03 2.4M
20260425T00Z_MSC_RDPS_NetLongwaveRadiationFlux-Accum_Sfc_RLatLon0.09_PT061H.grib2 2026-04-25 03:03 588K
20260425T00Z_MSC_RDPS_NetShortwaveRadiationFlux-Accum_Sfc_RLatLon0.09_PT061H.grib2 2026-04-25 03:03 586K
20260425T00Z_MSC_RDPS_PlanetaryBoundaryLayerHeight_Sfc_RLatLon0.09_PT061H.grib2 2026-04-25 03:03 1.1M
20260425T00Z_MSC_RDPS_Precip-Accum1h_Sfc_RLatLon0.09_PT061H.grib2 2026-04-25 03:03 1.3M
20260425T00Z_MSC_RDPS_Precip-Accum_Sfc_RLatLon0.09_PT061H.grib2 2026-04-25 03:03 2.2M
20260425T00Z_MSC_RDPS_PrecipRate_Sfc_RLatLon0.09_PT061H.grib2 2026-04-25 03:03 181K
20260425T00Z_MSC_RDPS_PrecipType-Instant_Sfc_RLatLon0.09_PT061H.grib2 2026-04-25 03:03 602K
20260425T00Z_MSC_RDPS_Pressure-Trend3h_Sfc_RLatLon0.09_PT061H.grib2 2026-04-25 03:03 1.2M
20260425T00Z_MSC_RDPS_Pressure_MSL_RLatLon0.09_PT061H.grib2 2026-04-25 03:03 328K
20260425T00Z_MSC_RDPS_Pressure_PVU-1.5_RLatLon0.09_PT061H.grib2 2026-04-25 03:03 2.3M
20260425T00Z_MSC_RDPS_Pressure_PVU-1_RLatLon0.09_PT061H.grib2 2026-04-25 03:03 2.4M
20260425T00Z_MSC_RDPS_Pressure_PVU-2_RLatLon0.09_PT061H.grib2 2026-04-25 03:03 2.2M
20260425T00Z_MSC_RDPS_Pressure_Sfc_RLatLon0.09_PT061H.grib2 2026-04-25 03:03 501K
20260425T00Z_MSC_RDPS_RadiativeTemp_Sfc_RLatLon0.09_PT061H.grib2 2026-04-25 03:03 311K
20260425T00Z_MSC_RDPS_Rain-Accum1h_Sfc_RLatLon0.09_PT061H.grib2 2026-04-25 03:03 623K
20260425T00Z_MSC_RDPS_Rain-Accum_Sfc_RLatLon0.09_PT061H.grib2 2026-04-25 03:03 1.7M
20260425T00Z_MSC_RDPS_RelativeHumidity_AGL-2m_RLatLon0.09_PT061H.grib2 2026-04-25 03:03 1.0M
20260425T00Z_MSC_RDPS_RelativeHumidity_IsbL-0010_RLatLon0.09_PT061H.grib2 2026-04-25 03:03 628K
20260425T00Z_MSC_RDPS_RelativeHumidity_IsbL-0020_RLatLon0.09_PT061H.grib2 2026-04-25 03:03 653K
20260425T00Z_MSC_RDPS_RelativeHumidity_IsbL-0030_RLatLon0.09_PT061H.grib2 2026-04-25 03:03 542K
20260425T00Z_MSC_RDPS_RelativeHumidity_IsbL-0050_RLatLon0.09_PT061H.grib2 2026-04-25 03:03 327K
20260425T00Z_MSC_RDPS_RelativeHumidity_IsbL-0100_RLatLon0.09_PT061H.grib2 2026-04-25 03:03 270K
20260425T00Z_MSC_RDPS_RelativeHumidity_IsbL-0150_RLatLon0.09_PT061H.grib2 2026-04-25 03:03 392K
20260425T00Z_MSC_RDPS_RelativeHumidity_IsbL-0175_RLatLon0.09_PT061H.grib2 2026-04-25 03:03 470K
20260425T00Z_MSC_RDPS_RelativeHumidity_IsbL-0200_RLatLon0.09_PT061H.grib2 2026-04-25 03:03 551K
20260425T00Z_MSC_RDPS_RelativeHumidity_IsbL-0225_RLatLon0.09_PT061H.grib2 2026-04-25 03:03 615K
20260425T00Z_MSC_RDPS_RelativeHumidity_IsbL-0250_RLatLon0.09_PT061H.grib2 2026-04-25 03:03 682K
20260425T00Z_MSC_RDPS_RelativeHumidity_IsbL-0275_RLatLon0.09_PT061H.grib2 2026-04-25 03:03 710K
20260425T00Z_MSC_RDPS_RelativeHumidity_IsbL-0300_RLatLon0.09_PT061H.grib2 2026-04-25 03:03 756K
20260425T00Z_MSC_RDPS_RelativeHumidity_IsbL-0350_RLatLon0.09_PT061H.grib2 2026-04-25 03:03 778K
20260425T00Z_MSC_RDPS_RelativeHumidity_IsbL-0400_RLatLon0.09_PT061H.grib2 2026-04-25 03:03 797K
20260425T00Z_MSC_RDPS_RelativeHumidity_IsbL-0450_RLatLon0.09_PT061H.grib2 2026-04-25 03:03 813K
20260425T00Z_MSC_RDPS_RelativeHumidity_IsbL-0500_RLatLon0.09_PT061H.grib2 2026-04-25 03:03 823K
20260425T00Z_MSC_RDPS_RelativeHumidity_IsbL-0550_RLatLon0.09_PT061H.grib2 2026-04-25 03:03 836K
20260425T00Z_MSC_RDPS_RelativeHumidity_IsbL-0600_RLatLon0.09_PT061H.grib2 2026-04-25 03:03 852K
20260425T00Z_MSC_RDPS_RelativeHumidity_IsbL-0650_RLatLon0.09_PT061H.grib2 2026-04-25 03:03 867K
20260425T00Z_MSC_RDPS_RelativeHumidity_IsbL-0700_RLatLon0.09_PT061H.grib2 2026-04-25 03:03 899K
20260425T00Z_MSC_RDPS_RelativeHumidity_IsbL-0750_RLatLon0.09_PT061H.grib2 2026-04-25 03:03 943K
20260425T00Z_MSC_RDPS_RelativeHumidity_IsbL-0800_RLatLon0.09_PT061H.grib2 2026-04-25 03:03 1.0M
20260425T00Z_MSC_RDPS_RelativeHumidity_IsbL-0850_RLatLon0.09_PT061H.grib2 2026-04-25 03:03 1.1M
20260425T00Z_MSC_RDPS_RelativeHumidity_IsbL-0875_RLatLon0.09_PT061H.grib2 2026-04-25 03:03 1.1M
20260425T00Z_MSC_RDPS_RelativeHumidity_IsbL-0900_RLatLon0.09_PT061H.grib2 2026-04-25 03:03 1.1M
20260425T00Z_MSC_RDPS_RelativeHumidity_IsbL-0925_RLatLon0.09_PT061H.grib2 2026-04-25 03:03 1.1M
20260425T00Z_MSC_RDPS_RelativeHumidity_IsbL-0950_RLatLon0.09_PT061H.grib2 2026-04-25 03:03 1.1M
20260425T00Z_MSC_RDPS_RelativeHumidity_IsbL-0970_RLatLon0.09_PT061H.grib2 2026-04-25 03:03 1.1M
20260425T00Z_MSC_RDPS_RelativeHumidity_IsbL-0985_RLatLon0.09_PT061H.grib2 2026-04-25 03:03 1.1M
20260425T00Z_MSC_RDPS_RelativeHumidity_IsbL-1000_RLatLon0.09_PT061H.grib2 2026-04-25 03:03 1.0M
20260425T00Z_MSC_RDPS_RelativeHumidity_IsbL-1015_RLatLon0.09_PT061H.grib2 2026-04-25 03:03 1.0M
20260425T00Z_MSC_RDPS_Runoff-Accum_Sfc_RLatLon0.09_PT061H.grib2 2026-04-25 03:03 73K
20260425T00Z_MSC_RDPS_SWEATIndex_Sfc_RLatLon0.09_PT061H.grib2 2026-04-25 03:03 2.4M
20260425T00Z_MSC_RDPS_SeeingIndex_EAtm_RLatLon0.09_PT061H.grib2 2026-04-25 03:03 1.0M
20260425T00Z_MSC_RDPS_SensibleHeatNetFlux_Sfc_RLatLon0.09_PT061H.grib2 2026-04-25 03:03 327K
20260425T00Z_MSC_RDPS_ShowalterIndex_IsbL-0500_RLatLon0.09_PT061H.grib2 2026-04-25 03:03 2.6M
20260425T00Z_MSC_RDPS_SkyTransparencyIndex_EAtm_RLatLon0.09_PT061H.grib2 2026-04-25 03:03 742K
20260425T00Z_MSC_RDPS_Snow-Accum1h_Sfc_RLatLon0.09_PT061H.grib2 2026-04-25 03:03 411K
20260425T00Z_MSC_RDPS_Snow-Accum_Sfc_RLatLon0.09_PT061H.grib2 2026-04-25 03:03 872K
20260425T00Z_MSC_RDPS_SnowDensity_Sfc_RLatLon0.09_PT061H.grib2 2026-04-25 03:03 185K
20260425T00Z_MSC_RDPS_SnowDepth_Sfc_RLatLon0.09_PT061H.grib2 2026-04-25 03:03 737K
20260425T00Z_MSC_RDPS_SoilTemp_DBS-0to10cm_RLatLon0.09_PT061H.grib2 2026-04-25 03:03 238K
20260425T00Z_MSC_RDPS_SoilTemp_Sfc_RLatLon0.09_PT061H.grib2 2026-04-25 03:03 276K
20260425T00Z_MSC_RDPS_SoilVolumetricIceContent_Sfc_RLatLon0.09_PT061H.grib2 2026-04-25 03:03 170K
20260425T00Z_MSC_RDPS_SoilVolumetricWaterContent_DBS-0to10cm_RLatLon0.09_PT061H.grib2 2026-04-25 03:03 259K
20260425T00Z_MSC_RDPS_SoilVolumetricWaterContent_DBS-0to1cm_RLatLon0.09_PT061H.grib2 2026-04-25 03:03 344K
20260425T00Z_MSC_RDPS_SpecificHumidity_AGL-120m_RLatLon0.09_PT061H.grib2 2026-04-25 03:03 491K
20260425T00Z_MSC_RDPS_SpecificHumidity_AGL-2m_RLatLon0.09_PT061H.grib2 2026-04-25 03:03 663K
20260425T00Z_MSC_RDPS_SpecificHumidity_AGL-40m_RLatLon0.09_PT061H.grib2 2026-04-25 03:03 498K
20260425T00Z_MSC_RDPS_SpecificHumidity_AGL-80m_RLatLon0.09_PT061H.grib2 2026-04-25 03:03 494K
20260425T00Z_MSC_RDPS_SpecificHumidity_IsbL-0001_RLatLon0.09_PT061H.grib2 2026-04-25 03:03 342K
20260425T00Z_MSC_RDPS_SpecificHumidity_IsbL-0005_RLatLon0.09_PT061H.grib2 2026-04-25 03:03 453K
20260425T00Z_MSC_RDPS_SpecificHumidity_IsbL-0010_RLatLon0.09_PT061H.grib2 2026-04-25 03:03 392K
20260425T00Z_MSC_RDPS_SpecificHumidity_IsbL-0020_RLatLon0.09_PT061H.grib2 2026-04-25 03:03 494K
20260425T00Z_MSC_RDPS_SpecificHumidity_IsbL-0030_RLatLon0.09_PT061H.grib2 2026-04-25 03:03 469K
20260425T00Z_MSC_RDPS_SpecificHumidity_IsbL-0050_RLatLon0.09_PT061H.grib2 2026-04-25 03:03 463K
20260425T00Z_MSC_RDPS_SpecificHumidity_IsbL-0100_RLatLon0.09_PT061H.grib2 2026-04-25 03:03 416K
20260425T00Z_MSC_RDPS_SpecificHumidity_IsbL-0150_RLatLon0.09_PT061H.grib2 2026-04-25 03:03 363K
20260425T00Z_MSC_RDPS_SpecificHumidity_IsbL-0175_RLatLon0.09_PT061H.grib2 2026-04-25 03:03 453K
20260425T00Z_MSC_RDPS_SpecificHumidity_IsbL-0200_RLatLon0.09_PT061H.grib2 2026-04-25 03:03 450K
20260425T00Z_MSC_RDPS_SpecificHumidity_IsbL-0225_RLatLon0.09_PT061H.grib2 2026-04-25 03:03 447K
20260425T00Z_MSC_RDPS_SpecificHumidity_IsbL-0250_RLatLon0.09_PT061H.grib2 2026-04-25 03:03 548K
20260425T00Z_MSC_RDPS_SpecificHumidity_IsbL-0275_RLatLon0.09_PT061H.grib2 2026-04-25 03:03 463K
20260425T00Z_MSC_RDPS_SpecificHumidity_IsbL-0300_RLatLon0.09_PT061H.grib2 2026-04-25 03:03 533K
20260425T00Z_MSC_RDPS_SpecificHumidity_IsbL-0350_RLatLon0.09_PT061H.grib2 2026-04-25 03:03 524K
20260425T00Z_MSC_RDPS_SpecificHumidity_IsbL-0400_RLatLon0.09_PT061H.grib2 2026-04-25 03:03 511K
20260425T00Z_MSC_RDPS_SpecificHumidity_IsbL-0450_RLatLon0.09_PT061H.grib2 2026-04-25 03:03 572K
20260425T00Z_MSC_RDPS_SpecificHumidity_IsbL-0500_RLatLon0.09_PT061H.grib2 2026-04-25 03:03 511K
20260425T00Z_MSC_RDPS_SpecificHumidity_IsbL-0550_RLatLon0.09_PT061H.grib2 2026-04-25 03:03 564K
20260425T00Z_MSC_RDPS_SpecificHumidity_IsbL-0600_RLatLon0.09_PT061H.grib2 2026-04-25 03:03 630K
20260425T00Z_MSC_RDPS_SpecificHumidity_IsbL-0650_RLatLon0.09_PT061H.grib2 2026-04-25 03:03 674K
20260425T00Z_MSC_RDPS_SpecificHumidity_IsbL-0700_RLatLon0.09_PT061H.grib2 2026-04-25 03:03 592K
20260425T00Z_MSC_RDPS_SpecificHumidity_IsbL-0750_RLatLon0.09_PT061H.grib2 2026-04-25 03:03 650K
20260425T00Z_MSC_RDPS_SpecificHumidity_IsbL-0800_RLatLon0.09_PT061H.grib2 2026-04-25 03:03 725K
20260425T00Z_MSC_RDPS_SpecificHumidity_IsbL-0850_RLatLon0.09_PT061H.grib2 2026-04-25 03:03 805K
20260425T00Z_MSC_RDPS_SpecificHumidity_IsbL-0875_RLatLon0.09_PT061H.grib2 2026-04-25 03:03 827K
20260425T00Z_MSC_RDPS_SpecificHumidity_IsbL-0900_RLatLon0.09_PT061H.grib2 2026-04-25 03:03 835K
20260425T00Z_MSC_RDPS_SpecificHumidity_IsbL-0925_RLatLon0.09_PT061H.grib2 2026-04-25 03:03 838K
20260425T00Z_MSC_RDPS_SpecificHumidity_IsbL-0950_RLatLon0.09_PT061H.grib2 2026-04-25 03:03 834K
20260425T00Z_MSC_RDPS_SpecificHumidity_IsbL-0970_RLatLon0.09_PT061H.grib2 2026-04-25 03:03 827K
20260425T00Z_MSC_RDPS_SpecificHumidity_IsbL-0985_RLatLon0.09_PT061H.grib2 2026-04-25 03:03 684K
20260425T00Z_MSC_RDPS_SpecificHumidity_IsbL-1000_RLatLon0.09_PT061H.grib2 2026-04-25 03:03 681K
20260425T00Z_MSC_RDPS_SpecificHumidity_IsbL-1015_RLatLon0.09_PT061H.grib2 2026-04-25 03:03 673K
20260425T00Z_MSC_RDPS_SpecificHumidity_Sfc_RLatLon0.09_PT061H.grib2 2026-04-25 03:03 301K
20260425T00Z_MSC_RDPS_StormRelativeHelicity_EtaL-10000_RLatLon0.09_PT061H.grib2 2026-04-25 03:03 1.1M
20260425T00Z_MSC_RDPS_StormSeverityIndex_EtaL-10000_RLatLon0.09_PT061H.grib2 2026-04-25 03:03 1.2M
20260425T00Z_MSC_RDPS_Thickness_IsbL-0850to0700_RLatLon0.09_PT061H.grib2 2026-04-25 03:03 175K
20260425T00Z_MSC_RDPS_Thickness_IsbL-1000to0500_RLatLon0.09_PT061H.grib2 2026-04-25 03:03 199K
20260425T00Z_MSC_RDPS_Thickness_IsbL-1000to0850_RLatLon0.09_PT061H.grib2 2026-04-25 03:03 186K
20260425T00Z_MSC_RDPS_TotalCloudCover_Sfc_RLatLon0.09_PT061H.grib2 2026-04-25 03:03 684K
20260425T00Z_MSC_RDPS_TotalTotalsIndex_Sfc_RLatLon0.09_PT061H.grib2 2026-04-25 03:03 2.4M
20260425T00Z_MSC_RDPS_UVIndex-ClearSky_Sfc_RLatLon0.09_PT061H.grib2 2026-04-25 03:03 187K
20260425T00Z_MSC_RDPS_UVIndex_Sfc_RLatLon0.09_PT061H.grib2 2026-04-25 03:03 409K
20260425T00Z_MSC_RDPS_UpwardLongwaveRadiationFlux_NTAtm_RLatLon0.09_PT061H.grib2 2026-04-25 03:03 489K
20260425T00Z_MSC_RDPS_UpwardShortwaveRadiationFlux_NTAtm_RLatLon0.09_PT061H.grib2 2026-04-25 03:03 353K
20260425T00Z_MSC_RDPS_VerticalVelocity_IsbL-0250_RLatLon0.09_PT061H.grib2 2026-04-25 03:03 539K
20260425T00Z_MSC_RDPS_VerticalVelocity_IsbL-0500_RLatLon0.09_PT061H.grib2 2026-04-25 03:03 540K
20260425T00Z_MSC_RDPS_VerticalVelocity_IsbL-0700_RLatLon0.09_PT061H.grib2 2026-04-25 03:03 588K
20260425T00Z_MSC_RDPS_VerticalVelocity_IsbL-0850_RLatLon0.09_PT061H.grib2 2026-04-25 03:03 695K
20260425T00Z_MSC_RDPS_VerticalWindShear_EtaL-6500_RLatLon0.09_PT061H.grib2 2026-04-25 03:03 1.2M
20260425T00Z_MSC_RDPS_WindChill_Sfc_RLatLon0.09_PT061H.grib2 2026-04-25 03:03 1.3M
20260425T00Z_MSC_RDPS_WindDir_AGL-10m_RLatLon0.09_PT061H.grib2 2026-04-25 03:03 1.0M
20260425T00Z_MSC_RDPS_WindDir_AGL-120m_RLatLon0.09_PT061H.grib2 2026-04-25 03:03 624K
20260425T00Z_MSC_RDPS_WindDir_AGL-40m_RLatLon0.09_PT061H.grib2 2026-04-25 03:03 656K
20260425T00Z_MSC_RDPS_WindDir_AGL-80m_RLatLon0.09_PT061H.grib2 2026-04-25 03:03 636K
20260425T00Z_MSC_RDPS_WindDir_IsbL-0001_RLatLon0.09_PT061H.grib2 2026-04-25 03:03 299K
20260425T00Z_MSC_RDPS_WindDir_IsbL-0005_RLatLon0.09_PT061H.grib2 2026-04-25 03:03 349K
20260425T00Z_MSC_RDPS_WindDir_IsbL-0010_RLatLon0.09_PT061H.grib2 2026-04-25 03:03 375K
20260425T00Z_MSC_RDPS_WindDir_IsbL-0020_RLatLon0.09_PT061H.grib2 2026-04-25 03:03 406K
20260425T00Z_MSC_RDPS_WindDir_IsbL-0030_RLatLon0.09_PT061H.grib2 2026-04-25 03:03 422K
20260425T00Z_MSC_RDPS_WindDir_IsbL-0050_RLatLon0.09_PT061H.grib2 2026-04-25 03:03 428K
20260425T00Z_MSC_RDPS_WindDir_IsbL-0100_RLatLon0.09_PT061H.grib2 2026-04-25 03:03 398K
20260425T00Z_MSC_RDPS_WindDir_IsbL-0150_RLatLon0.09_PT061H.grib2 2026-04-25 03:03 402K
20260425T00Z_MSC_RDPS_WindDir_IsbL-0175_RLatLon0.09_PT061H.grib2 2026-04-25 03:03 423K
20260425T00Z_MSC_RDPS_WindDir_IsbL-0200_RLatLon0.09_PT061H.grib2 2026-04-25 03:03 441K
20260425T00Z_MSC_RDPS_WindDir_IsbL-0225_RLatLon0.09_PT061H.grib2 2026-04-25 03:03 448K
20260425T00Z_MSC_RDPS_WindDir_IsbL-0250_RLatLon0.09_PT061H.grib2 2026-04-25 03:03 448K
20260425T00Z_MSC_RDPS_WindDir_IsbL-0275_RLatLon0.09_PT061H.grib2 2026-04-25 03:03 473K
20260425T00Z_MSC_RDPS_WindDir_IsbL-0300_RLatLon0.09_PT061H.grib2 2026-04-25 03:03 472K
20260425T00Z_MSC_RDPS_WindDir_IsbL-0350_RLatLon0.09_PT061H.grib2 2026-04-25 03:03 494K
20260425T00Z_MSC_RDPS_WindDir_IsbL-0400_RLatLon0.09_PT061H.grib2 2026-04-25 03:03 513K
20260425T00Z_MSC_RDPS_WindDir_IsbL-0450_RLatLon0.09_PT061H.grib2 2026-04-25 03:03 525K
20260425T00Z_MSC_RDPS_WindDir_IsbL-0500_RLatLon0.09_PT061H.grib2 2026-04-25 03:03 540K
20260425T00Z_MSC_RDPS_WindDir_IsbL-0550_RLatLon0.09_PT061H.grib2 2026-04-25 03:03 553K
20260425T00Z_MSC_RDPS_WindDir_IsbL-0600_RLatLon0.09_PT061H.grib2 2026-04-25 03:03 584K
20260425T00Z_MSC_RDPS_WindDir_IsbL-0650_RLatLon0.09_PT061H.grib2 2026-04-25 03:03 627K
20260425T00Z_MSC_RDPS_WindDir_IsbL-0700_RLatLon0.09_PT061H.grib2 2026-04-25 03:03 668K
20260425T00Z_MSC_RDPS_WindDir_IsbL-0750_RLatLon0.09_PT061H.grib2 2026-04-25 03:03 719K
20260425T00Z_MSC_RDPS_WindDir_IsbL-0800_RLatLon0.09_PT061H.grib2 2026-04-25 03:03 794K
20260425T00Z_MSC_RDPS_WindDir_IsbL-0850_RLatLon0.09_PT061H.grib2 2026-04-25 03:03 864K
20260425T00Z_MSC_RDPS_WindDir_IsbL-0875_RLatLon0.09_PT061H.grib2 2026-04-25 03:03 889K
20260425T00Z_MSC_RDPS_WindDir_IsbL-0900_RLatLon0.09_PT061H.grib2 2026-04-25 03:03 907K
20260425T00Z_MSC_RDPS_WindDir_IsbL-0925_RLatLon0.09_PT061H.grib2 2026-04-25 03:03 920K
20260425T00Z_MSC_RDPS_WindDir_IsbL-0950_RLatLon0.09_PT061H.grib2 2026-04-25 03:03 925K
20260425T00Z_MSC_RDPS_WindDir_IsbL-0970_RLatLon0.09_PT061H.grib2 2026-04-25 03:03 931K
20260425T00Z_MSC_RDPS_WindDir_IsbL-0985_RLatLon0.09_PT061H.grib2 2026-04-25 03:03 947K
20260425T00Z_MSC_RDPS_WindDir_IsbL-1000_RLatLon0.09_PT061H.grib2 2026-04-25 03:03 964K
20260425T00Z_MSC_RDPS_WindDir_IsbL-1015_RLatLon0.09_PT061H.grib2 2026-04-25 03:03 1.0M
20260425T00Z_MSC_RDPS_WindGust-Max_AGL-10m_RLatLon0.09_PT061H.grib2 2026-04-25 03:03 967K
20260425T00Z_MSC_RDPS_WindGust-Min_AGL-10m_RLatLon0.09_PT061H.grib2 2026-04-25 03:03 936K
20260425T00Z_MSC_RDPS_WindGust_AGL-10m_RLatLon0.09_PT061H.grib2 2026-04-25 03:03 954K
20260425T00Z_MSC_RDPS_WindSpeed_AGL-10m_RLatLon0.09_PT061H.grib2 2026-04-25 03:03 859K
20260425T00Z_MSC_RDPS_WindSpeed_AGL-120m_RLatLon0.09_PT061H.grib2 2026-04-25 03:03 563K
20260425T00Z_MSC_RDPS_WindSpeed_AGL-40m_RLatLon0.09_PT061H.grib2 2026-04-25 03:03 565K
20260425T00Z_MSC_RDPS_WindSpeed_AGL-80m_RLatLon0.09_PT061H.grib2 2026-04-25 03:03 564K
20260425T00Z_MSC_RDPS_WindSpeed_IsbL-0001_RLatLon0.09_PT061H.grib2 2026-04-25 03:03 252K
20260425T00Z_MSC_RDPS_WindSpeed_IsbL-0005_RLatLon0.09_PT061H.grib2 2026-04-25 03:03 299K
20260425T00Z_MSC_RDPS_WindSpeed_IsbL-0010_RLatLon0.09_PT061H.grib2 2026-04-25 03:03 312K
20260425T00Z_MSC_RDPS_WindSpeed_IsbL-0020_RLatLon0.09_PT061H.grib2 2026-04-25 03:03 326K
20260425T00Z_MSC_RDPS_WindSpeed_IsbL-0030_RLatLon0.09_PT061H.grib2 2026-04-25 03:03 325K
20260425T00Z_MSC_RDPS_WindSpeed_IsbL-0050_RLatLon0.09_PT061H.grib2 2026-04-25 03:03 357K
20260425T00Z_MSC_RDPS_WindSpeed_IsbL-0100_RLatLon0.09_PT061H.grib2 2026-04-25 03:03 471K
20260425T00Z_MSC_RDPS_WindSpeed_IsbL-0150_RLatLon0.09_PT061H.grib2 2026-04-25 03:03 367K
20260425T00Z_MSC_RDPS_WindSpeed_IsbL-0175_RLatLon0.09_PT061H.grib2 2026-04-25 03:03 395K
20260425T00Z_MSC_RDPS_WindSpeed_IsbL-0200_RLatLon0.09_PT061H.grib2 2026-04-25 03:03 434K
20260425T00Z_MSC_RDPS_WindSpeed_IsbL-0225_RLatLon0.09_PT061H.grib2 2026-04-25 03:03 442K
20260425T00Z_MSC_RDPS_WindSpeed_IsbL-0250_RLatLon0.09_PT061H.grib2 2026-04-25 03:03 444K
20260425T00Z_MSC_RDPS_WindSpeed_IsbL-0275_RLatLon0.09_PT061H.grib2 2026-04-25 03:03 462K
20260425T00Z_MSC_RDPS_WindSpeed_IsbL-0300_RLatLon0.09_PT061H.grib2 2026-04-25 03:03 461K
20260425T00Z_MSC_RDPS_WindSpeed_IsbL-0350_RLatLon0.09_PT061H.grib2 2026-04-25 03:03 455K
20260425T00Z_MSC_RDPS_WindSpeed_IsbL-0400_RLatLon0.09_PT061H.grib2 2026-04-25 03:03 461K
20260425T00Z_MSC_RDPS_WindSpeed_IsbL-0450_RLatLon0.09_PT061H.grib2 2026-04-25 03:03 459K
20260425T00Z_MSC_RDPS_WindSpeed_IsbL-0500_RLatLon0.09_PT061H.grib2 2026-04-25 03:03 574K
20260425T00Z_MSC_RDPS_WindSpeed_IsbL-0550_RLatLon0.09_PT061H.grib2 2026-04-25 03:03 573K
20260425T00Z_MSC_RDPS_WindSpeed_IsbL-0600_RLatLon0.09_PT061H.grib2 2026-04-25 03:03 584K
20260425T00Z_MSC_RDPS_WindSpeed_IsbL-0650_RLatLon0.09_PT061H.grib2 2026-04-25 03:03 606K
20260425T00Z_MSC_RDPS_WindSpeed_IsbL-0700_RLatLon0.09_PT061H.grib2 2026-04-25 03:03 674K
20260425T00Z_MSC_RDPS_WindSpeed_IsbL-0750_RLatLon0.09_PT061H.grib2 2026-04-25 03:03 704K
20260425T00Z_MSC_RDPS_WindSpeed_IsbL-0800_RLatLon0.09_PT061H.grib2 2026-04-25 03:03 759K
20260425T00Z_MSC_RDPS_WindSpeed_IsbL-0850_RLatLon0.09_PT061H.grib2 2026-04-25 03:03 770K
20260425T00Z_MSC_RDPS_WindSpeed_IsbL-0875_RLatLon0.09_PT061H.grib2 2026-04-25 03:03 792K
20260425T00Z_MSC_RDPS_WindSpeed_IsbL-0900_RLatLon0.09_PT061H.grib2 2026-04-25 03:03 854K
20260425T00Z_MSC_RDPS_WindSpeed_IsbL-0925_RLatLon0.09_PT061H.grib2 2026-04-25 03:03 866K
20260425T00Z_MSC_RDPS_WindSpeed_IsbL-0950_RLatLon0.09_PT061H.grib2 2026-04-25 03:03 872K
20260425T00Z_MSC_RDPS_WindSpeed_IsbL-0970_RLatLon0.09_PT061H.grib2 2026-04-25 03:03 869K
20260425T00Z_MSC_RDPS_WindSpeed_IsbL-0985_RLatLon0.09_PT061H.grib2 2026-04-25 03:03 869K
20260425T00Z_MSC_RDPS_WindSpeed_IsbL-1000_RLatLon0.09_PT061H.grib2 2026-04-25 03:03 863K
20260425T00Z_MSC_RDPS_WindSpeed_IsbL-1015_RLatLon0.09_PT061H.grib2 2026-04-25 03:03 856K
20260425T00Z_MSC_RDPS_WindU_AGL-10m_RLatLon0.09_PT061H.grib2 2026-04-25 03:03 392K
20260425T00Z_MSC_RDPS_WindU_AGL-120m_RLatLon0.09_PT061H.grib2 2026-04-25 03:03 443K
20260425T00Z_MSC_RDPS_WindU_AGL-40m_RLatLon0.09_PT061H.grib2 2026-04-25 03:03 430K
20260425T00Z_MSC_RDPS_WindU_AGL-80m_RLatLon0.09_PT061H.grib2 2026-04-25 03:03 429K
20260425T00Z_MSC_RDPS_WindU_IsbL-0001_RLatLon0.09_PT061H.grib2 2026-04-25 03:03 293K
20260425T00Z_MSC_RDPS_WindU_IsbL-0005_RLatLon0.09_PT061H.grib2 2026-04-25 03:03 333K
20260425T00Z_MSC_RDPS_WindU_IsbL-0010_RLatLon0.09_PT061H.grib2 2026-04-25 03:03 303K
20260425T00Z_MSC_RDPS_WindU_IsbL-0020_RLatLon0.09_PT061H.grib2 2026-04-25 03:03 357K
20260425T00Z_MSC_RDPS_WindU_IsbL-0030_RLatLon0.09_PT061H.grib2 2026-04-25 03:03 356K
20260425T00Z_MSC_RDPS_WindU_IsbL-0050_RLatLon0.09_PT061H.grib2 2026-04-25 03:03 385K
20260425T00Z_MSC_RDPS_WindU_IsbL-0100_RLatLon0.09_PT061H.grib2 2026-04-25 03:03 429K
20260425T00Z_MSC_RDPS_WindU_IsbL-0150_RLatLon0.09_PT061H.grib2 2026-04-25 03:03 385K
20260425T00Z_MSC_RDPS_WindU_IsbL-0175_RLatLon0.09_PT061H.grib2 2026-04-25 03:03 411K
20260425T00Z_MSC_RDPS_WindU_IsbL-0200_RLatLon0.09_PT061H.grib2 2026-04-25 03:03 330K
20260425T00Z_MSC_RDPS_WindU_IsbL-0225_RLatLon0.09_PT061H.grib2 2026-04-25 03:03 336K
20260425T00Z_MSC_RDPS_WindU_IsbL-0250_RLatLon0.09_PT061H.grib2 2026-04-25 03:03 337K
20260425T00Z_MSC_RDPS_WindU_IsbL-0275_RLatLon0.09_PT061H.grib2 2026-04-25 03:03 351K
20260425T00Z_MSC_RDPS_WindU_IsbL-0300_RLatLon0.09_PT061H.grib2 2026-04-25 03:03 348K
20260425T00Z_MSC_RDPS_WindU_IsbL-0350_RLatLon0.09_PT061H.grib2 2026-04-25 03:03 357K
20260425T00Z_MSC_RDPS_WindU_IsbL-0400_RLatLon0.09_PT061H.grib2 2026-04-25 03:03 466K
20260425T00Z_MSC_RDPS_WindU_IsbL-0450_RLatLon0.09_PT061H.grib2 2026-04-25 03:03 465K
20260425T00Z_MSC_RDPS_WindU_IsbL-0500_RLatLon0.09_PT061H.grib2 2026-04-25 03:03 464K
20260425T00Z_MSC_RDPS_WindU_IsbL-0550_RLatLon0.09_PT061H.grib2 2026-04-25 03:03 464K
20260425T00Z_MSC_RDPS_WindU_IsbL-0600_RLatLon0.09_PT061H.grib2 2026-04-25 03:03 474K
20260425T00Z_MSC_RDPS_WindU_IsbL-0650_RLatLon0.09_PT061H.grib2 2026-04-25 03:03 493K
20260425T00Z_MSC_RDPS_WindU_IsbL-0700_RLatLon0.09_PT061H.grib2 2026-04-25 03:03 513K
20260425T00Z_MSC_RDPS_WindU_IsbL-0750_RLatLon0.09_PT061H.grib2 2026-04-25 03:03 539K
20260425T00Z_MSC_RDPS_WindU_IsbL-0800_RLatLon0.09_PT061H.grib2 2026-04-25 03:03 584K
20260425T00Z_MSC_RDPS_WindU_IsbL-0850_RLatLon0.09_PT061H.grib2 2026-04-25 03:03 634K
20260425T00Z_MSC_RDPS_WindU_IsbL-0875_RLatLon0.09_PT061H.grib2 2026-04-25 03:03 651K
20260425T00Z_MSC_RDPS_WindU_IsbL-0900_RLatLon0.09_PT061H.grib2 2026-04-25 03:03 661K
20260425T00Z_MSC_RDPS_WindU_IsbL-0925_RLatLon0.09_PT061H.grib2 2026-04-25 03:03 670K
20260425T00Z_MSC_RDPS_WindU_IsbL-0950_RLatLon0.09_PT061H.grib2 2026-04-25 03:03 670K
20260425T00Z_MSC_RDPS_WindU_IsbL-0970_RLatLon0.09_PT061H.grib2 2026-04-25 03:03 661K
20260425T00Z_MSC_RDPS_WindU_IsbL-0985_RLatLon0.09_PT061H.grib2 2026-04-25 03:03 661K
20260425T00Z_MSC_RDPS_WindU_IsbL-1000_RLatLon0.09_PT061H.grib2 2026-04-25 03:03 660K
20260425T00Z_MSC_RDPS_WindU_IsbL-1015_RLatLon0.09_PT061H.grib2 2026-04-25 03:03 655K
20260425T00Z_MSC_RDPS_WindV_AGL-10m_RLatLon0.09_PT061H.grib2 2026-04-25 03:03 439K
20260425T00Z_MSC_RDPS_WindV_AGL-120m_RLatLon0.09_PT061H.grib2 2026-04-25 03:03 426K
20260425T00Z_MSC_RDPS_WindV_AGL-40m_RLatLon0.09_PT061H.grib2 2026-04-25 03:03 547K
20260425T00Z_MSC_RDPS_WindV_AGL-80m_RLatLon0.09_PT061H.grib2 2026-04-25 03:03 545K
20260425T00Z_MSC_RDPS_WindV_IsbL-0001_RLatLon0.09_PT061H.grib2 2026-04-25 03:03 291K
20260425T00Z_MSC_RDPS_WindV_IsbL-0005_RLatLon0.09_PT061H.grib2 2026-04-25 03:03 331K
20260425T00Z_MSC_RDPS_WindV_IsbL-0010_RLatLon0.09_PT061H.grib2 2026-04-25 03:03 303K
20260425T00Z_MSC_RDPS_WindV_IsbL-0020_RLatLon0.09_PT061H.grib2 2026-04-25 03:03 320K
20260425T00Z_MSC_RDPS_WindV_IsbL-0030_RLatLon0.09_PT061H.grib2 2026-04-25 03:03 358K
20260425T00Z_MSC_RDPS_WindV_IsbL-0050_RLatLon0.09_PT061H.grib2 2026-04-25 03:03 349K
20260425T00Z_MSC_RDPS_WindV_IsbL-0100_RLatLon0.09_PT061H.grib2 2026-04-25 03:03 327K
20260425T00Z_MSC_RDPS_WindV_IsbL-0150_RLatLon0.09_PT061H.grib2 2026-04-25 03:03 385K
20260425T00Z_MSC_RDPS_WindV_IsbL-0175_RLatLon0.09_PT061H.grib2 2026-04-25 03:03 317K
20260425T00Z_MSC_RDPS_WindV_IsbL-0200_RLatLon0.09_PT061H.grib2 2026-04-25 03:03 330K
20260425T00Z_MSC_RDPS_WindV_IsbL-0225_RLatLon0.09_PT061H.grib2 2026-04-25 03:03 335K
20260425T00Z_MSC_RDPS_WindV_IsbL-0250_RLatLon0.09_PT061H.grib2 2026-04-25 03:03 360K
20260425T00Z_MSC_RDPS_WindV_IsbL-0275_RLatLon0.09_PT061H.grib2 2026-04-25 03:03 373K
20260425T00Z_MSC_RDPS_WindV_IsbL-0300_RLatLon0.09_PT061H.grib2 2026-04-25 03:03 346K
20260425T00Z_MSC_RDPS_WindV_IsbL-0350_RLatLon0.09_PT061H.grib2 2026-04-25 03:03 354K
20260425T00Z_MSC_RDPS_WindV_IsbL-0400_RLatLon0.09_PT061H.grib2 2026-04-25 03:03 358K
20260425T00Z_MSC_RDPS_WindV_IsbL-0450_RLatLon0.09_PT061H.grib2 2026-04-25 03:03 458K
20260425T00Z_MSC_RDPS_WindV_IsbL-0500_RLatLon0.09_PT061H.grib2 2026-04-25 03:03 457K
20260425T00Z_MSC_RDPS_WindV_IsbL-0550_RLatLon0.09_PT061H.grib2 2026-04-25 03:03 458K
20260425T00Z_MSC_RDPS_WindV_IsbL-0600_RLatLon0.09_PT061H.grib2 2026-04-25 03:03 467K
20260425T00Z_MSC_RDPS_WindV_IsbL-0650_RLatLon0.09_PT061H.grib2 2026-04-25 03:03 486K
20260425T00Z_MSC_RDPS_WindV_IsbL-0700_RLatLon0.09_PT061H.grib2 2026-04-25 03:03 492K
20260425T00Z_MSC_RDPS_WindV_IsbL-0750_RLatLon0.09_PT061H.grib2 2026-04-25 03:03 519K
20260425T00Z_MSC_RDPS_WindV_IsbL-0800_RLatLon0.09_PT061H.grib2 2026-04-25 03:03 567K
20260425T00Z_MSC_RDPS_WindV_IsbL-0850_RLatLon0.09_PT061H.grib2 2026-04-25 03:03 618K
20260425T00Z_MSC_RDPS_WindV_IsbL-0875_RLatLon0.09_PT061H.grib2 2026-04-25 03:03 637K
20260425T00Z_MSC_RDPS_WindV_IsbL-0900_RLatLon0.09_PT061H.grib2 2026-04-25 03:03 651K
20260425T00Z_MSC_RDPS_WindV_IsbL-0925_RLatLon0.09_PT061H.grib2 2026-04-25 03:03 660K
20260425T00Z_MSC_RDPS_WindV_IsbL-0950_RLatLon0.09_PT061H.grib2 2026-04-25 03:03 662K
20260425T00Z_MSC_RDPS_WindV_IsbL-0970_RLatLon0.09_PT061H.grib2 2026-04-25 03:03 658K
20260425T00Z_MSC_RDPS_WindV_IsbL-0985_RLatLon0.09_PT061H.grib2 2026-04-25 03:03 799K
20260425T00Z_MSC_RDPS_WindV_IsbL-1000_RLatLon0.09_PT061H.grib2 2026-04-25 03:03 797K
20260425T00Z_MSC_RDPS_WindV_IsbL-1015_RLatLon0.09_PT061H.grib2 2026-04-25 03:03 791K